NG8H-1 Weather Reports


Display with metric or nautical units.
time (UTC)temp
F
wind
direction
speed
MPH
gust
MPH
rain 1hr
in
rain 24hr
in
rain mn
in
humidity
%
barometer
mb
20240523173945 84 0 0.0 6.0 0.00 0.00 0.00 4 1011.5
20240523162309 82 0 0.0 4.0 0.00 0.00 0.00 3 1012.0
20240523161810 82 0 0.0 3.0 0.00 0.00 0.00 4 1012.0
20240523161222 81 0 0.0 5.0 0.00 0.00 0.00 4 1012.0
20240523153723 80 0 0.0 6.0 0.00 0.00 0.00 3 1012.1
20240523153223 80 0 0.0 5.0 0.00 0.00 0.00 3 1012.1
20240523152223 80 0 0.0 4.0 0.00 0.00 0.00 3 1012.2
20240523151223 78 0 0.0 4.0 0.00 0.00 0.00 3 1012.1
20240523150723 78 0 0.0 3.0 0.00 0.00 0.00 2 1012.1
20240523145722 78 0 0.0 3.0 0.00 0.00 0.00 3 1012.0
20240523145222 77 0 0.0 3.0 0.00 0.00 0.00 3 1012.0
20240523144222 77 0 0.0 3.0 0.00 0.00 0.00 3 1012.0
20240523143722 77 0 0.0 0.0 0.00 0.00 0.00 3 1012.1
20240523143258 77 0 0.0 0.0 0.00 0.00 0.00 4 1012.0
20240523143222 77 0 0.0 0.0 0.00 0.00 0.00 4 1012.0
20240523141729 73 0 0.0 0.0 0.00 0.00 0.00 6 1011.9
20240523141230 72 0 0.0 0.0 0.00 0.00 0.00 8 1011.9
20240523140730 71 0 0.0 0.0 0.00 0.00 0.00 9 1011.9
20240523140230 69 0 0.0 0.0 0.00 0.00 0.00 8 1012.0
20240523135730 68 0 0.0 0.0 0.00 0.00 0.00 9 1012.1
20240523135230 66 0 0.0 0.0 0.00 0.00 0.00 10 1012.0
20240523134730 64 0 0.0 1.0 0.00 0.00 0.00 11 1012.0
20240523134229 62 0 0.0 1.0 0.00 0.00 0.00 13 1012.1
20240523133730 60 0 0.0 0.0 0.00 0.00 0.00 15 1012.0
20240523133230 59 0 0.0 0.0 0.00 0.00 0.00 17 1011.9
20240523132231 55 0 0.0 0.0 0.00 0.00 0.00 19 1011.8
20240523131731 54 0 0.0 1.0 0.00 0.00 0.00 19 1011.7
20240523130731 51 0 0.0 1.0 0.00 0.00 0.00 19 1011.8
20240523130232 50 0 0.0 0.0 0.00 0.00 0.00 21 1011.6
20240523125232 48 0 0.0 2.0 0.00 0.00 0.00 21 1011.6
20240523124824 48 0 0.0 1.0 0.00 0.00 0.00 21 1011.4
20240523124732 48 0 0.0 1.0 0.00 0.00 0.00 21 1011.4
20240523124231 47 0 0.0 2.0 0.00 0.00 0.00 22 1011.3
20240523123732 47 0 0.0 2.0 0.00 0.00 0.00 22 1011.4
20240523123245 46 0 0.0 1.0 0.00 0.00 0.00 22 1011.3
20240523122731 46 0 0.0 1.0 0.00 0.00 0.00 22 1011.2
20240523122231 46 0 0.0 1.0 0.00 0.00 0.00 23 1011.2
20240523121731 46 0 0.0 0.0 0.00 0.00 0.00 22 1011.3
20240523121312 46 0 0.0 1.0 0.00 0.00 0.00 22 1011.3
20240523121231 46 0 0.0 1.0 0.00 0.00 0.00 22 1011.3
20240523120731 47 0 0.0 1.0 0.00 0.00 0.00 22 1011.3
20240523120309 47 0 0.0 0.0 0.00 0.00 0.00 22 1011.3
20240523120231 47 0 0.0 0.0 0.00 0.00 0.00 22 1011.3
20240523115808 47 0 0.0 0.0 0.00 0.00 0.00 21 1011.3
20240523115731 47 0 0.0 0.0 0.00 0.00 0.00 21 1011.3
20240523115232 48 0 0.0 0.0 0.00 0.00 0.00 21 1011.3
20240523114808 48 0 0.0 0.0 0.00 0.00 0.00 21 1011.3
20240523114731 48 0 0.0 0.0 0.00 0.00 0.00 21 1011.3
20240523114231 48 0 0.0 0.0 0.00 0.00 0.00 20 1011.4
20240523113731 48 0 0.0 0.0 0.00 0.00 0.00 20 1011.3
20240523113230 49 0 0.0 0.0 0.00 0.00 0.00 21 1011.3
20240523112809 49 0 0.0 0.0 0.00 0.00 0.00 20 1011.3
20240523112731 49 0 0.0 0.0 0.00 0.00 0.00 20 1011.3
20240523112231 49 0 0.0 1.0 0.00 0.00 0.00 21 1011.3
20240523111808 49 0 0.0 1.0 0.00 0.00 0.00 20 1011.3
20240523111731 49 0 0.0 1.0 0.00 0.00 0.00 20 1011.3
20240523111314 50 0 0.0 1.0 0.00 0.00 0.00 20 1011.3
20240523111231 50 0 0.0 1.0 0.00 0.00 0.00 20 1011.3
20240523110731 50 0 0.0 1.0 0.00 0.00 0.00 20 1011.3
20240523110231 50 0 0.0 1.0 0.00 0.00 0.00 20 1011.3
20240523105731 50 0 0.0 1.0 0.00 0.00 0.00 20 1011.5
20240523105230 50 0 0.0 1.0 0.00 0.00 0.00 19 1011.4
20240523104731 51 0 0.0 0.0 0.00 0.00 0.00 20 1011.4
20240523104231 51 0 0.0 0.0 0.00 0.00 0.00 19 1011.4
20240523103731 51 0 0.0 0.0 0.00 0.00 0.00 19 1011.4
20240523103231 51 0 0.0 0.0 0.00 0.00 0.00 19 1011.4
20240523102731 52 0 0.0 0.0 0.00 0.00 0.00 18 1011.3
20240523102231 52 0 0.0 0.0 0.00 0.00 0.00 18 1011.3
20240523101731 52 0 0.0 0.0 0.00 0.00 0.00 18 1011.4
20240523101307 52 0 0.0 0.0 0.00 0.00 0.00 18 1011.4
20240523101230 52 0 0.0 0.0 0.00 0.00 0.00 18 1011.4
20240523100731 52 0 0.0 0.0 0.00 0.00 0.00 18 1011.4
20240523100229 53 0 0.0 0.0 0.00 0.00 0.00 19 1011.4
20240523100156 53 0 0.0 0.0 0.00 0.00 0.00 19 1011.4
20240523095330 54 0 0.0 1.0 0.00 0.00 0.00 18 1011.3
20240523094830 54 0 0.0 1.0 0.00 0.00 0.00 18 1011.4
20240523094330 55 0 0.0 1.0 0.00 0.00 0.00 17 1011.4
20240523093830 54 0 0.0 2.0 0.00 0.00 0.00 17 1011.3
20240523093330 54 0 0.0 2.0 0.00 0.00 0.00 17 1011.3
20240523092829 55 0 0.0 0.0 0.00 0.00 0.00 17 1011.3
20240523092329 55 0 0.0 0.0 0.00 0.00 0.00 17 1011.3
20240523091508 56 0 0.0 2.0 0.00 0.00 0.00 16 1011.3
20240523091434 56 0 0.0 2.0 0.00 0.00 0.00 16 1011.3
20240523090934 56 0 0.0 0.0 0.00 0.00 0.00 16 1011.3
20240523090434 56 0 0.0 0.0 0.00 0.00 0.00 16 1011.4
20240523090012 56 0 0.0 0.0 0.00 0.00 0.00 16 1011.4
20240523085933 56 0 0.0 0.0 0.00 0.00 0.00 16 1011.4
20240523085433 57 0 0.0 0.0 0.00 0.00 0.00 16 1011.4
20240523084933 58 0 0.0 0.0 0.00 0.00 0.00 15 1011.3
20240523084434 59 0 0.0 0.0 0.00 0.00 0.00 14 1011.2
20240523083934 60 0 0.0 0.0 0.00 0.00 0.00 14 1011.3
20240523083434 61 0 0.0 0.0 0.00 0.00 0.00 14 1011.4
20240523082933 61 0 0.0 0.0 0.00 0.00 0.00 14 1011.5
20240523082433 62 0 0.0 1.0 0.00 0.00 0.00 13 1011.5
20240523081933 63 0 0.0 2.0 0.00 0.00 0.00 13 1011.4
20240523081434 65 0 0.0 2.0 0.00 0.00 0.00 12 1011.5
20240523080934 66 0 0.0 0.0 0.00 0.00 0.00 10 1011.5
20240523080435 67 0 0.0 0.0 0.00 0.00 0.00 9 1011.5
20240523075553 67 0 0.0 2.0 0.00 0.00 0.00 8 1011.5
20240523075053 68 0 0.0 3.0 0.00 0.00 0.00 8 1011.6
20240523074553 68 0 0.0 3.0 0.00 0.00 0.00 8 1011.6
20240523074053 68 0 0.0 3.0 0.00 0.00 0.00 8 1011.6
20240523073553 68 0 0.0 5.0 0.00 0.00 0.00 8 1011.8
20240523060648 70 0 0.0 3.0 0.00 0.00 0.00 9 1011.8
20240523060148 70 0 0.0 3.0 0.00 0.00 0.00 8 1011.8
20240523053751 71 0 0.0 3.0 0.00 0.00 0.00 7 1011.9
20240523052752 71 0 0.0 3.0 0.00 0.00 0.00 7 1011.9
20240523052251 70 0 0.0 2.0 0.00 0.00 0.00 7 1011.9
20240523051751 70 0 0.0 2.0 0.00 0.00 0.00 7 1011.8
20240523051252 70 0 0.0 2.0 0.00 0.00 0.00 7 1011.9
20240523050751 71 0 0.0 1.0 0.00 0.00 0.00 7 1011.8
20240523050251 71 0 0.0 2.0 0.00 0.00 0.00 7 1011.8
20240523045751 71 0 0.0 3.0 0.00 0.00 0.00 7 1011.8
20240523045251 71 0 0.0 4.0 0.00 0.00 0.00 7 1011.7
20240523044252 70 0 0.0 3.0 0.00 0.00 0.00 7 1011.5
20240523043251 71 0 0.0 2.0 0.00 0.00 0.00 7 1011.2
20240523042251 72 0 0.0 3.0 0.00 0.00 0.00 6 1010.9
20240523041251 72 0 0.0 3.0 0.00 0.00 0.00 6 1010.8
20240523040825 72 0 0.0 3.0 0.00 0.00 0.00 6 1010.7
20240523040751 72 0 0.0 3.0 0.00 0.00 0.00 6 1010.7
20240523040251 73 0 0.0 3.0 0.00 0.00 0.00 6 1010.6
20240523035751 73 0 0.0 3.0 0.00 0.00 0.00 6 1010.5
20240523035325 74 0 0.0 3.0 0.00 0.00 0.00 5 1010.5
20240523035251 74 0 0.0 3.0 0.00 0.00 0.00 5 1010.5
20240523034751 74 0 0.0 2.0 0.00 0.00 0.00 5 1010.4
20240523034251 75 0 0.0 3.0 0.00 0.00 0.00 5 1010.3
20240523033752 76 0 0.0 3.0 0.00 0.00 0.00 5 1010.3
20240523033251 76 0 0.0 2.0 0.00 0.00 0.00 5 1010.2
20240523032751 77 0 0.0 2.0 0.00 0.00 0.00 4 1010.1
20240523032251 78 0 0.0 3.0 0.00 0.00 0.00 4 1010.1
20240522233502 93 269 7.0 15.0 0.00 0.00 0.00 2 1008.7
20240522224758 93 296 5.0 11.0 0.00 0.00 0.00 3 1008.8
20240522204330 90 0 0.0 14.0 0.00 0.00 0.00 3 1010.9